RH
62 60 60 62 62 64 70 77 82 88 92 94 93 94 99 105 106 104 103 105 105 103 103 104 99 93 89 87 87 85 80 76 73 74 80 90 100 105 107 104 98 94 89 82 76 72 70 68 64 65 69 72 75 82 88 91 95 99 96 92 92 96 101 100 98 97 98 98 98 97 95 92 90 91 95 96 95 93 86 76 69 67 68 71 72
60 59 59 60 59 57 60 64 66 69 74 80 84 86 92 100 107 108 102 103 107 103 102 105 101 96 91 85 85 86 86 83 78 74 73 78 87 97 104 107 106 103 99 94 89 82 78 77 72 65 64 64 64 67 72 76 78 82 87 92 96 98 100 101 101 99 97 98 99 100 100 99 94 89 87 88 91 95 98 99 97 91 88 88 90
55 57 57 57 57 57 57 58 59 56 55 61 69 76 87 95 103 107 101 101 109 105 99 102 102 100 99 94 90 89 89 87 82 79 77 76 79 84 90 98 105 107 104 101 100 94 87 86 85 79 72 68 67 64 62 64 66 69 72 76 82 87 93 98 100 100 98 99 101 101 101 100 100 99 95 92 90 87 88 92 97 100 99 99 100
52 53 54 53 53 54 55 56 57 52 50 54 57 64 80 86 87 96 96 92 101 106 103 104 103 101 103 103 102 99 98 94 87 81 78 78 79 78 78 82 89 98 102 104 104 101 96 94 92 90 87 81 77 72 66 62 61 61 62 63 65 68 76 84 89 92 91 91 95 100 103 102 101 101 101 101 100 95 91 89 88 88 89 92 98
45 46 46 47 48 48 50 52 52 52 53 60 64 66 76 76 68 73 81 79 81 89 97 100 98 99 102 104 105 104 103 102 97 90 84 78 77 77 76 76 76 81 89 97 102 103 102 101 98 95 94 93 90 88 83 77 72 67 62 60 59 59 62 68 74 78 79 79 81 86 93 99 102 103 101 100 101 100 100 99 96 91 85 81 82
40 40 39 39 39 39 42 43 46 54 59 69 84 91 91 88 71 61 66 73 73 73 82 90 91 92 96 97 100 102 103 104 102 100 96 89 84 80 77 78 77 76 78 82 89 97 102 104 103 101 100 97 95 96 97 95 92 87 80 73 66 61 59 59 61 63 66 69 70 72 76 82 89 96 101 101 100 97 96 96 98 99 98 94 87
39 41 39 38 37 35 36 35 39 47 50 62 88 102 101 96 80 61 53 60 67 64 63 70 76 80 81 81 87 94 96 101 102 101 102 100 96 91 85 82 81 81 82 81 80 82 89 96 100 104 107 103 98 97 97 98 99 98 96 93 88 81 74 68 63 60 60 61 62 63 65 67 69 75 84 93 99 101 100 97 95 92 92 95 97
41 42 40 39 38 36 36 34 34 37 36 42 57 65 65 63 61 55 45 46 63 67 56 52 56 65 72 72 74 79 80 84 90 92 95 98 99 99 96 90 84 82 83 85 83 80 79 82 86 92 99 101 101 100 98 96 97 97 97 98 99 99 96 92 85 78 72 67 64 62 61 61 61 62 65 70 78 86 94 99 100 98 95 93 94
42 43 43 41 39 38 37 35 33 33 32 31 33 34 35 36 39 43 40 40 53 60 52 41 38 51 67 68 70 77 73 66 69 73 77 82 87 93 98 97 93 88 84 84 85 85 82 79 78 79 81 84 89 94 97 98 98 97 96 97 98 99 100 101 100 97 93 87 82 78 73 67 63 61 60 60 61 66 72 79 84 88 92 94 95
43 44 45 45 44 41 40 39 36 34 32 31 30 30 30 30 29 31 34 35 39 41 41 37 41 60 71 64 64 73 67 54 53 56 59 61 65 71 79 86 91 92 92 91 89 88 85 81 79 78 76 74 74 77 81 87 93 97 98 99 99 99 99 98 97 96 95 94 93 91 90 88 82 76 71 67 64 62 63 63 65 67 70 74 78
44 45 45 46 48 47 44 43 40 38 37 35 33 31 30 30 29 26 28 30 29 34 37 37 47 66 66 52 47 50 46 43 44 45 47 49 50 51 53 58 67 74 81 87 91 92 89 84 80 78 77 74 71 71 71 73 79 86 91 95 97 99 100 99 99 97 94 93 92 90 89 93 98 97 91 85 79 74 69 66 62 60 60 60 61
45 46 47 47 48 49 48 47 45 43 42 40 39 37 35 34 33 30 29 28 27 31 33 31 35 44 45 40 37 35 35 38 38 36 37 39 40 41 40 41 45 49 54 62 71 78 84 86 84 81 77 74 71 71 71 71 72 74 78 82 86 90 93 97 101 103 102 100 100 97 92 89 92 96 96 94 91 87 83 80 75 70 66 64 62
48 48 48 48 48 49 49 49 48 47 46 45 44 43 41 40 39 36 33 31 30 30 31 31 30 31 33 34 33 32 34 34 32 31 32 32 33 33 33 34 36 37 39 42 46 51 58 68 76 79 79 78 76 73 71 71 71 72 72 74 76 78 82 88 95 101 104 104 105 106 103 95 91 92 92 92 91 89 87 87 87 85 82 79 75
49 49 49 48 48 48 48 49 49 49 49 49 49 48 48 46 45 43 39 36 35 35 34 34 33 32 32 32 30 33 35 34 33 32 31 30 31 30 29 30 30 31 34 35 36 38 39 43 51 59 66 72 75 76 74 72 70 70 72 73 74 75 77 81 88 96 101 103 103 105 105 102 98 97 97 94 91 89 87 86 88 88 86 86 86
53 51 51 50 50 49 48 48 48 49 50 51 52 52 52 52 51 50 47 43 42 42 40 39 38 36 34 32 31 32 35 36 36 36 34 34 33 32 32 30 28 27 29 30 30 31 33 34 35 39 44 51 58 64 69 71 71 70 71 73 75 78 79 80 83 88 93 98 102 104 104 103 100 99 100 100 98 97 93 90 89 88 86 86 86
59 57 56 56 55 55 54 53 52 52 52 51 52 52 52 53 53 51 50 48 46 45 45 44 42 39 36 34 33 33 36 38 37 37 37 38 37 37 37 34 31 28 27 27 27 27 28 29 29 30 32 35 39 44 51 58 63 67 69 71 74 77 81 84 83 82 82 84 89 97 103 106 105 101 98 97 98 98 96 94 92 91 89 88 87
63 62 62 62 62 61 60 59 58 57 56 55 53 52 51 51 52 52 51 50 49 48 48 46 43 41 40 37 36 38 40 38 38 39 40 40 41 41 40 38 36 34 31 29 28 27 27 26 26 26 27 28 29 32 35 39 45 52 58 64 68 72 75 79 81 82 82 80 79 83 89 96 100 102 98 94 92 91 91 92 92 89 86 85 86
66 65 64 64 66 66 64 63 61 60 59 57 55 54 53 52 53 53 53 52 51 50 50 48 45 43 43 42 42 43 43 41 40 42 42 43 44 43 42 41 39 38 36 34 32 30 29 28 27 26 25 25 25 26 27 29 31 35 40 47 54 61 66 69 72 74 77 80 81 82 84 86 88 90 90 88 86 83 82 83 83 81 79 78 80
68 66 65 66 67 68 67 67 66 63 62 60 58 55 54 53 53 53 53 53 52 50 50 50 47 44 46 48 46 45 44 43 43 44 44 45 47 46 45 43 42 41 40 38 36 34 32 30 29 28 27 26 25 24 24 25 25 27 29 32 36 43 49 55 61 64 66 69 73 76 81 85 87 87 86 84 81 78 75 73 72 72 71 70 70
67 66 66 66 66 66 66 65 65 65 64 62 61 58 56 55 54 53 52 52 51 50 50 49 47 46 48 48 46 45 46 46 46 47 47 47 48 48 48 46 45 44 42 40 39 37 36 34 31 30 30 29 28 27 25 24 24 24 24 26 27 30 33 38 43 49 55 58 62 65 69 74 79 82 82 82 79 76 73 70 68 67 67 66 65
60 60 61 62 62 62 62 61 61 61 61 61 60 59 57 55 54 53 53 52 51 51 50 49 49 49 49 48 47 48 50 51 51 51 50 49 49 49 49 48 47 45 44 43 41 40 39 37 34 33 33 31 30 29 28 26 25 24 23 23 23 24 26 28 30 33 38 43 47 53 57 61 66 70 73 74 73 72 70 68 66 66 65 66 67
50 50 51 53 55 56 56 57 57 56 57 57 56 56 56 55 54 53 53 53 53 53 52 51 51 52 52 51 52 52 54 55 54 52 49 48 48 48 47 47 46 46 45 44 42 41 40 38 36 35 34 32 31 30 30 29 27 26 25 24 23 22 22 23 24 25 27 30 33 37 41 45 50 54 58 62 63 64 64 63 62 62 61 61 63
42 43 44 45 48 50 51 52 51 52 52 51 49 49 50 50 49 50 51 51 51 50 49 47 47 49 52 52 52 51 51 51 49 47 45 44 44 44 43 42 43 43 42 41 41 40 40 39 38 37 36 35 33 31 31 30 29 28 27 25 23 23 21 21 21 21 22 22 24 25 28 31 34 37 41 44 46 48 51 52 52 52 52 52 53
38 39 39 41 42 44 44 44 44 45 45 43 42 41 42 43 44 44 44 45 45 44 43 42 43 45 47 47 45 44 44 44 43 42 41 40 39 38 38 39 39 39 38 38 38 38 39 39 38 38 38 37 36 34 32 30 29 29 28 27 25 23 22 21 21 20 20 21 20 20 21 22 24 26 28 30 32 33 35 37 38 39 39 39 40
37 38 39 40 42 42 42 41 41 42 43 42 41 40 42 44 43 41 41 42 43 43 42 41 42 43 42 41 41 41 42 42 41 40 38 37 37 36 36 36 36 36 36 36 37 38 39 39 39 38 37 36 35 35 34 32 31 30 30 29 28 26 25 24 23 22 22 22 22 21 21 21 21 21 21 21 22 24 25 26 27 28 28 28 29
39 40 41 42 42 41 40 38 38 38 39 39 38 39 43 44 41 39 39 40 41 41 41 41 42 41 40 39 39 39 40 40 39 39 38 37 36 35 36 36 35 35 35 35 35 36 38 39 39 38 36 33 32 32 32 32 32 31 30 29 28 28 27 26 25 25 24 24 24 24 24 24 23 22 22 21 21 21 20 20 20 21 21 21 21
38 38 39 39 38 36 35 35 34 34 34 34 33 36 38 38 37 36 36 36 37 38 38 38 38 38 38 40 40 39 39 40 40 39 37 35 34 34 35 37 37 37 36 36 36 37 38 39 38 36 34 31 29 28 29 29 29 29 29 28 27 26 26 26 25 25 25 25 25 25 25 26 25 24 24 23 23 23 21 20 20 19 18 18 18
33 35 36 36 34 33 34 34 34 32 32 32 32 34 36 37 38 37 36 35 36 36 36 36 37 37 38 39 40 40 40 40 39 37 33 30 30 33 37 39 39 39 39 38 39 38 38 36 35 33 32 30 28 26 25 25 26 27 27 26 26 25 25 24 25 24 24 24 25 25 25 25 25 25 24 24 23 23 21 21 20 19 18 17 17
31 33 34 33 32 32 33 35 36 36 34 33 35 37 39 39 39 37 36 36 37 37 37 37 37 39 40 40 40 41 41 41 38 34 30 27 30 35 39 39 39 40 40 40 39 37 35 34 33 32 30 28 26 25 24 23 24 24 24 25 25 24 24 23 23 22 22 23 23 24 24 24 24 24 23 23 23 22 21 20 19 18 17 16 16
30 32 33 34 34 35 37 39 40 38 36 36 40 42 40 38 39 40 40 42 43 43 43 42 43 44 44 43 43 43 43 40 36 33 31 30 32 37 41 41 41 41 41 40 39 36 35 33 31 29 28 26 25 25 25 24 24 23 23 22 21 21 20 20 20 19 20 20 20 21 21 22 22 22 22 22 22 21 20 19 18 18 17 17 17
30 33 35 36 36 36 38 40 39 38 37 39 41 41 39 39 42 45 47 49 50 50 49 48 48 49 48 47 47 46 42 38 35 35 35 34 34 37 41 42 41 40 39 39 38 36 34 32 29 27 27 26 26 26 25 23 21 19 18 17 16 15 15 15 16 16 17 18 18 19 19 20 20 20 19 19 20 20 20 20 19 19 19 19 20
33 36 37 36 36 35 35 37 37 37 38 39 38 38 38 40 42 44 46 48 49 50 50 50 49 50 51 50 49 45 40 37 36 36 36 36 36 38 40 40 39 38 37 37 35 33 31 30 29 30 29 28 27 25 21 18 15 13 12 11 11 12 12 13 14 15 16 17 17 18 18 18 18 18 18 18 19 19 19 19 20 20 20 20 20
31 32 32 33 34 35 36 37 37 34 33 34 34 34 35 36 37 38 40 42 44 46 47 47 47 48 49 49 47 43 41 40 40 39 38 39 39 38 38 37 36 35 33 32 30 30 29 29 29 29 28 26 23 19 15 12 10 9 10 10 11 11 11 12 13 14 14 15 16 16 17 16 17 17 17 18 18 18 18 18 18 17 17 17 17
30 29 30 31 32 34 34 34 33 30 28 29 30 31 31 31 32 33 34 35 38 40 41 42 43 43 44 43 42 41 42 42 42 42 41 40 39 37 35 33 31 30 28 27 27 26 26 25 23 21 19 17 13 11 10 9 9 10 10 10 11 11 11 12 13 14 14 14 15 15 15 16 16 16 16 16 16 16 16 16 15 15 15 15 15
30 30 30 29 28 29 29 28 26 25 25 25 26 27 27 27 28 28 29 30 31 32 33 34 35 35 36 37 38 39 40 40 39 39 38 37 36 34 32 30 27 26 24 23 22 21 19 18 16 14 12 10 8 8 8 8 9 10 10 10 11 12 12 12 13 13 14 14 14 14 15 15 15 15 15 15 15 15 15 14 14 15 15 15 15
26 26 25 25 25 24 24 23 22 21 21 20 20 21 21 22 22 23 23 24 25 25 26 27 28 28 30 31 32 33 34 34 34 33 33 33 32 30 28 27 25 23 21 19 18 18 17 15 12 10 8 7 7 8 9 10 10 11 11 12 12 12 13 13 13 14 14 14 14 14 15 15 15 15 16 16 15 15 16 16 16 16 16 16 16
22 22 21 21 21 21 20 19 18 17 17 16 15 15 15 16 17 18 18 19 19 20 21 21 22 23 25 26 27 28 28 28 29 29 29 28 28 27 26 24 21 19 18 19 19 18 15 12 10 9 9 10 11 12 12 13 13 14 14 14 15 15 15 15 15 15 15 15 16 16 16 17 17 17 18 18 17 17 17 17 17 17 16 15 14
20 20 18 17 17 17 17 17 16 17 17 16 16 16 17 17 18 19 19 19 20 20 20 21 22 23 24 24 25 25 26 26 27 27 27 27 26 25 23 20 19 19 20 20 18 15 13 12 12 13 14 15 16 17 17 17 17 18 18 18 18 18 18 18 18 19 19 19 19 20 20 20 19 19 19 18 17 16 16 16 16 15 14 14 15
17 16 16 17 19 21 22 23 23 24 24 24 24 24 24 25 25 25 25 25 25 25 25 26 26 27 27 27 26 26 27 28 28 27 27 27 26 24 22 22 22 23 21 18 16 14 15 16 17 18 19 19 20 20 20 21 21 21 22 22 21 21 21 21 21 21 21 21 21 20 19 19 18 18 17 17 16 16 16 16 17 17 17 17 19
20 22 24 26 28 29 29 29 29 29 29 30 30 30 30 30 29 29 29 29 29 30 31 31 31 31 30 29 30 30 30 30 30 31 32 31 29 27 27 28 26 22 18 17 18 19 20 21 21 22 22 21 21 21 22 23 24 24 23 23 23 23 22 22 21 21 20 20 19 18 19 19 19 18 18 18 18 19 19 19 19 20 20 21 22
28 29 30 30 30 30 30 30 30 31 31 30 30 31 31 31 30 29 30 32 33 34 35 35 35 34 34 35 36 36 37 39 40 41 41 39 36 34 32 28 22 18 19 22 23 24 24 24 23 23 22 22 22 23 24 25 25 25 24 23 22 22 21 21 20 20 19 19 20 21 23 23 22 21 21 20 20 20 20 21 22 22 23 24 24
31 31 32 32 33 33 33 33 32 31 30 30 30 30 30 30 31 32 35 37 39 40 41 41 42 43 45 47 48 49 51 53 53 51 48 44 41 36 30 23 19 21 25 27 27 26 26 24 23 22 23 24 26 27 27 26 26 25 24 24 23 23 24 24 23 22 23 24 25 27 27 26 24 22 21 21 21 22 23 24 24 25 25 26 25
35 36 36 37 36 35 33 31 30 29 29 29 30 31 32 35 38 40 43 47 49 51 53 55 57 60 62 63 65 65 65 63 59 55 50 45 39 31 25 23 25 27 28 28 27 26 25 24 24 26 28 30 31 31 30 29 29 29 28 27 27 29 30 30 29 30 30 31 31 30 27 25 23 22 22 23 23 24 25 25 26 26 26 26 26
40 39 39 37 35 33 32 31 31 32 32 33 34 37 41 45 48 52 56 60 63 67 70 72 74 75 76 76 76 75 71 66 60 54 47 41 34 29 28 29 30 29 28 27 28 28 27 27 29 32 34 37 39 38 36 35 35 35 34 34 35 36 37 36 36 36 36 34 32 29 26 24 24 24 25 25 25 26 26 26 27 27 27 26 26
48 45 42 40 38 37 38 40 41 41 42 44 47 51 54 58 61 65 70 73 76 79 81 82 83 82 82 81 80 76 71 64 56 49 43 40 37 35 33 32 30 29 29 30 30 31 32 34 36 38 40 44 46 44 41 40 41 42 42 43 44 44 43 42 41 40 38 35 32 29 27 28 29 28 27 27 27 28 27 27 27 27 26 26 26
60 56 51 49 48 49 50 51 52 54 57 61 65 67 68 70 73 76 78 81 84 85 86 86 86 85 83 80 77 73 67 59 52 47 46 46 43 39 34 31 31 31 32 34 36 38 40 43 44 44 45 49 51 48 46 47 48 47 48 50 51 51 49 46 43 41 39 37 35 33 35 36 34 32 30 30 29 28 28 27 27 26 26 25 25
70 65 62 60 59 59 60 60 61 63 67 71 75 77 78 79 81 81 81 83 85 86 86 86 84 82 79 75 72 68 64 58 54 52 51 49 44 38 34 32 33 35 38 40 43 47 49 51 50 49 50 53 55 53 52 53 54 53 53 55 57 56 52 48 47 48 48 45 43 43 45 45 41 37 34 32 30 29 28 27 26 26 25 25 24
80 73 70 68 65 64 66 67 69 71 72 72 74 76 77 79 80 80 80 80 82 84 85 85 83 79 75 72 70 68 66 63 59 54 51 47 43 39 36 35 36 40 45 48 53 57 58 57 55 55 56 58 60 60 60 60 59 59 60 61 60 59 58 58 60 62 61 58 55 54 56 54 49 43 38 34 31 30 28 27 27 26 24 23 22
96 89 82 76 72 71 70 70 71 73 74 75 75 74 74 78 83 84 82 81 84 88 90 89 84 80 77 74 72 71 71 67 61 54 50 47 44 40 38 38 41 47 52 57 63 68 67 63 60 60 61 63 67 69 68 67 67 66 66 66 66 69 71 72 73 74 72 68 65 65 67 65 58 49 42 36 32 30 28 27 25 24 23 22 21
103 103 98 90 84 80 77 74 74 76 80 85 88 87 85 86 88 89 88 89 92 94 95 92 87 84 81 77 74 72 71 67 62 56 53 49 46 43 40 41 45 53 59 65 73 77 74 68 66 65 64 66 72 76 78 78 75 72 71 72 75 80 82 81 79 80 80 78 76 78 78 75 67 57 47 38 33 30 27 26 24 23 23 23 22
102 107 110 107 103 99 94 89 84 81 82 87 94 97 97 95 93 93 95 98 99 98 96 94 90 87 83 78 74 71 71 69 64 60 56 52 49 46 43 43 48 58 65 71 79 85 82 75 71 68 65 67 74 82 89 89 83 76 77 82 86 87 87 85 83 83 86 88 90 92 91 86 77 64 50 40 35 31 27 25 25 25 24 23 23
Wind_Speed
60 59 58 58 57 55 55 54 53 52 51 51 52 52 51 52 53 53 55 57 57 58 58 58 57 56 55 54 53 53 52 52 52 51 50 48 47 47 47 48 49 50 52 54 56 58 59 60 61 61 62 63 64 65 66 66 65 65 65 67 68 68 65 64 65 66 67 67 66 65 64 64 64 63 62 61 61 60 59 58 57 56 56 55 55
62 62 61 61 60 59 58 58 57 56 54 54 52 50 50 52 54 54 55 57 59 59 59 60 60 59 58 57 56 56 55 55 55 54 54 53 52 51 50 49 49 50 52 53 55 57 58 60 61 63 63 63 64 65 66 67 67 67 66 66 69 71 71 68 66 66 68 69 71 70 69 68 67 66 65 65 65 64 62 60 58 57 56 56 56
63 63 64 63 62 61 60 61 60 59 58 57 55 51 49 52 55 56 56 56 59 61 61 60 61 61 61 61 60 60 59 59 58 57 57 57 56 56 54 53 52 51 52 53 55 57 58 59 60 62 63 65 65 66 67 68 69 69 69 69 69 70 72 73 71 69 68 68 70 73 73 73 72 71 70 70 69 69 68 67 65 62 59 57 56
63 63 64 64 64 62 62 62 62 61 59 58 58 55 52 54 57 58 58 58 59 60 61 62 63 62 62 63 63 63 63 63 62 61 60 59 59 59 58 57 57 55 55 55 56 57 58 60 60 61 62 64 65 66 67 69 70 71 71 72 72 72 72 73 74 74 72 70 69 70 73 75 75 75 74 74 74 73 72 72 72 71 70 67 65
61 61 62 63 63 62 61 60 60 60 58 55 56 57 57 61 64 62 60 59 59 59 60 63 64 64 64 65 65 66 66 65 65 64 63 63 62 62 61 61 61 60 59 58 58 59 59 60 61 62 63 63 64 65 66 68 69 70 71 72 73 74 74 75 75 76 76 76 74 72 71 73 74 75 76 76 76 76 76 75 75 75 76 76 75
57 59 60 60 61 60 58 57 56 57 53 47 47 52 57 62 66 65 63 61 61 62 62 63 63 64 67 68 68 69 68 67 67 66 66 66 66 65 65 64 64 64 64 63 63 62 62 62 62 63 64 65 65 65 66 67 67 68 69 71 72 73 74 76 76 77 77 78 79 78 77 75 74 74 75 76 76 77 77 78 78 78 78 79 79
56 58 59 59 58 58 57 55 56 57 55 49 49 54 59 62 64 66 66 63 63 66 66 64 64 66 70 70 69 70 70 70 69 69 69 69 69 69 68 68 67 67 67 67 67 67 66 66 66 65 65 66 66 67 67 67 67 68 68 69 70 71 72 74 75 76 77 78 79 80 80 80 78 77 76 76 77 78 77 77 78 79 80 80 81
58 59 60 60 59 59 59 58 58 59 59 59 62 65 66 67 67 67 65 62 62 64 66 65 64 66 70 70 69 71 72 72 73 72 72 72 72 72 71 71 71 70 70 70 70 70 70 69 69 69 69 68 68 68 68 68 69 69 69 70 70 71 71 72 73 74 75 75 76 77 78 79 79 80 79 78 78 78 79 79 79 80 80 80 81
61 62 62 63 62 61 62 61 61 61 61 63 65 67 69 69 69 67 64 62 63 64 66 65 63 65 69 69 68 70 72 74 74 75 76 76 75 75 75 74 73 73 73 73 72 73 73 73 73 73 73 72 71 70 70 70 70 71 71 71 72 72 73 73 74 74 74 74 75 75 76 76 78 79 79 79 79 79 79 80 81 82 82 82 83
64 64 65 65 65 65 65 64 64 64 64 64 65 66 67 68 68 67 64 63 65 65 65 64 62 64 68 68 67 70 72 74 74 76 78 78 78 79 78 77 76 75 75 75 76 76 77 76 76 76 76 76 75 74 74 73 73 73 73 73 74 74 75 75 76 76 76 75 76 76 76 76 77 78 78 79 79 79 79 80 81 82 83 83 84
67 67 67 68 68 69 68 68 68 67 66 67 67 67 67 67 67 67 65 64 65 65 64 63 62 63 65 67 68 70 71 73 75 77 78 79 80 81 81 79 78 78 78 78 78 79 79 79 79 79 79 79 78 78 78 77 77 76 76 76 76 76 76 77 77 77 78 77 78 78 78 78 79 79 78 78 79 79 79 80 80 81 82 83 84
69 70 70 70 71 71 71 71 71 70 69 70 70 70 70 69 69 69 67 65 65 66 66 66 67 66 66 68 69 70 70 73 75 76 77 79 81 82 82 81 81 81 81 81 82 82 81 81 82 82 82 82 82 81 81 81 81 81 80 80 79 79 78 78 78 79 79 79 79 80 81 81 81 81 81 81 80 80 80 81 81 81 82 83 83
72 72 73 73 73 73 73 73 73 72 72 72 72 72 72 72 72 72 70 68 67 68 68 68 69 70 69 70 70 69 70 73 75 76 77 78 79 81 81 80 82 83 82 83 84 85 84 84 84 84 84 85 85 84 84 84 84 84 84 84 83 83 82 81 81 81 81 81 81 82 83 83 83 83 83 83 83 83 82 82 83 83 83 83 84
75 75 75 75 75 75 75 75 75 74 75 75 75 75 75 75 75 75 74 73 71 71 71 71 71 71 71 71 70 68 71 74 75 76 77 77 77 79 80 80 81 82 82 83 85 86 87 86 86 86 87 87 87 87 87 87 87 87 87 87 87 87 86 85 85 85 85 85 84 85 85 85 84 85 86 86 85 85 84 84 84 85 85 84 85
78 77 77 77 76 76 76 76 76 76 77 77 76 77 77 77 77 77 77 76 75 74 74 73 73 73 72 72 69 68 71 75 76 76 76 76 76 78 79 80 81 81 80 81 84 85 86 87 88 89 90 90 89 89 90 90 90 90 90 90 90 90 90 90 90 89 89 89 88 88 88 88 88 88 88 89 88 88 87 87 86 87 86 86 86
79 79 79 78 77 77 77 77 78 78 78 78 78 78 78 78 78 78 79 78 77 77 76 76 76 75 73 72 69 68 71 75 75 75 75 75 77 78 79 80 81 81 80 81 82 83 84 85 87 89 91 91 91 91 92 93 93 93 93 92 92 93 93 93 94 94 93 93 92 91 91 91 92 92 92 92 92 92 91 90 90 90 89 88 88
80 80 80 80 79 79 79 79 79 80 80 80 80 79 79 79 79 79 79 79 78 78 78 78 77 75 74 72 69 69 73 75 73 73 74 75 77 79 80 81 81 81 81 81 82 82 82 84 86 88 89 91 91 92 93 95 95 95 95 95 95 95 96 97 97 97 97 96 95 94 94 95 95 96 96 96 96 95 95 93 93 94 93 91 91
81 81 81 80 80 81 81 81 81 81 81 81 81 81 81 80 80 80 80 80 80 80 79 79 79 76 74 74 73 73 75 74 72 73 74 75 77 79 80 81 82 82 82 81 81 81 82 83 84 86 87 88 89 90 92 94 96 96 97 97 97 98 99 100 100 100 99 99 98 98 98 98 99 99 100 99 99 99 99 97 98 98 97 95 95
82 82 81 81 81 82 82 82 82 82 82 82 82 82 82 81 81 81 81 81 81 81 80 81 80 77 76 77 76 76 75 74 73 74 75 76 77 79 80 81 81 81 81 81 81 82 82 83 84 84 85 86 87 89 90 92 94 95 97 98 99 100 101 102 102 102 101 101 101 101 101 102 102 102 102 102 102 102 102 101 101 101 101 100 99
82 82 81 81 81 82 82 83 83 83 83 83 82 82 82 82 82 82 82 82 82 82 82 82 81 79 78 79 78 76 75 75 76 76 77 78 79 79 80 81 81 80 81 81 81 81 82 83 83 82 83 85 86 87 89 90 91 93 95 97 99 101 103 104 104 104 104 103 104 104 104 104 104 104 105 105 105 105 105 104 104 104 103 102 102
81 81 81 80 81 81 82 82 82 82 82 82 82 82 82 82 82 82 82 82 82 82 82 81 80 80 80 79 78 76 76 77 78 79 80 80 80 80 80 81 80 80 80 80 81 81 81 82 81 81 82 83 84 86 87 88 90 91 92 94 96 98 100 103 104 105 106 106 106 106 106 106 106 106 107 107 108 108 107 107 106 106 105 105 105
78 78 78 78 79 80 80 81 81 81 81 81 81 81 81 81 81 80 80 80 81 81 81 80 79 79 79 79 78 77 77 78 80 81 80 80 80 80 80 80 80 80 80 80 80 79 80 80 80 79 80 82 82 83 85 87 88 89 90 92 94 95 97 99 101 103 105 106 107 108 108 108 108 108 109 109 110 110 109 108 108 108 107 107 107
73 74 74 74 75 76 77 79 79 79 79 79 78 78 79 79 78 77 77 77 78 78 78 77 76 75 76 77 77 77 77 77 78 79 79 79 79 79 79 79 79 80 79 79 78 78 78 78 78 77 78 79 79 80 81 83 85 86 88 90 91 93 94 95 96 98 100 102 104 106 107 109 110 110 111 111 111 111 111 110 110 110 110 109 109
67 68 68 68 69 71 73 74 74 74 75 75 75 75 74 74 74 74 74 74 74 74 74 73 71 71 73 75 75 74 74 74 75 76 77 77 77 77 77 77 77 77 77 76 75 75 75 75 75 74 74 75 76 78 79 80 81 83 84 86 88 89 90 91 92 93 94 96 98 100 102 104 106 109 111 112 113 113 113 112 112 113 113 113 112
63 63 63 64 65 67 69 69 69 69 70 70 70 69 68 69 71 71 70 70 70 70 70 69 68 69 71 71 70 70 70 72 73 73 74 74 73 73 73 73 73 73 73 72 72 72 72 72 71 71 71 71 72 74 75 76 77 78 80 81 83 84 85 85 86 86 87 89 91 93 95 97 99 102 104 107 108 110 111 112 113 114 114 114 114
59 59 60 61 63 64 65 65 65 64 65 66 65 64 64 66 67 67 66 66 66 66 66 66 67 68 68 67 67 67 68 69 70 70 70 70 70 69 69 69 69 69 68 68 67 67 67 68 68 68 68 68 67 68 69 70 71 72 74 75 75 76 76 77 77 77 78 79 81 84 87 90 92 94 97 99 101 103 105 107 108 110 111 111 112
57 57 58 60 61 61 61 61 61 61 61 61 60 60 61 63 63 63 63 63 62 62 63 63 63 64 64 64 64 65 65 65 66 67 68 67 65 64 64 65 65 65 65 64 63 63 63 64 64 65 64 64 63 62 62 63 64 65 66 67 67 67 67 67 68 69 69 71 73 75 78 81 84 87 89 91 94 96 99 100 102 103 104 105 105
54 55 56 58 58 58 57 58 58 58 57 57 56 56 57 58 59 60 60 59 58 59 59 59 59 60 60 61 61 62 63 63 65 66 66 63 60 58 59 61 62 62 62 61 61 61 61 61 61 61 60 60 59 57 56 56 57 58 60 61 61 61 61 62 62 63 64 66 67 69 72 75 77 80 82 85 87 90 93 94 96 97 98 98 98
51 53 54 55 55 54 54 55 55 55 54 53 52 52 54 55 55 56 55 54 54 55 55 55 56 57 57 58 59 60 61 63 64 64 62 58 54 53 56 57 58 58 59 59 59 59 58 59 59 58 58 57 55 54 53 52 53 54 55 56 58 59 59 59 60 61 62 62 64 66 68 71 73 75 77 79 82 85 87 88 89 90 91 90 90
49 50 51 52 52 52 51 52 52 52 50 49 49 51 51 50 50 50 49 50 51 52 52 52 53 54 55 56 57 58 60 61 61 60 58 55 52 51 53 54 55 55 56 56 57 57 57 57 57 56 55 54 53 52 52 52 52 53 53 55 56 57 57 58 58 59 59 60 61 63 64 67 69 71 74 76 78 80 81 82 82 83 83 82 82
46 48 50 50 50 49 49 49 50 49 48 48 49 50 48 46 46 47 47 48 49 50 51 51 51 52 54 55 56 57 59 59 57 56 55 53 50 49 50 51 52 53 53 54 55 55 55 55 55 54 53 52 51 51 51 51 52 52 53 53 53 53 53 54 55 55 56 57 59 60 62 64 66 69 71 72 73 75 76 76 76 76 76 76 76
46 48 49 49 48 47 46 47 48 49 49 48 48 47 47 46 47 47 48 49 49 50 51 51 51 52 53 54 56 57 57 56 54 53 52 51 49 49 49 50 51 51 51 52 53 53 53 52 52 52 52 52 51 52 51 51 50 50 49 48 48 48 48 49 51 52 53 55 57 59 60 62 63 65 66 67 68 69 70 71 71 71 71 71 70
46 47 47 46 46 46 45 46 49 50 48 48 47 47 47 48 48 48 49 50 50 51 52 53 53 53 54 55 56 56 55 54 53 52 52 51 50 50 50 50 50 50 49 49 49 49 49 49 49 49 49 50 51 52 51 49 47 46 45 44 44 44 44 45 47 49 50 52 53 55 56 57 57 58 59 60 61 62 63 63 63 63 63 63 63
46 46 44 44 45 45 45 48 50 49 47 47 46 47 47 48 48 48 49 50 50 52 53 53 54 54 55 55 55 54 54 54 53 53 53 52 51 51 50 50 49 48 47 46 45 45 44 44 43 43 45 47 48 48 46 43 41 40 39 40 40 40 40 41 42 43 45 46 47 48 49 49 50 51 52 53 53 54 55 55 56 56 56 57 57
45 45 44 44 44 44 45 47 47 46 46 45 45 46 47 48 48 48 49 49 50 52 52 53 54 54 53 53 53 53 53 52 52 52 52 52 52 51 50 49 48 46 44 43 41 40 38 37 37 39 41 42 41 38 36 35 34 34 34 34 35 35 36 37 38 39 39 40 41 41 42 43 44 45 45 46 47 48 49 49 49 50 50 51 51
43 43 42 41 41 42 43 43 43 43 44 44 44 45 47 47 47 48 49 49 50 51 51 52 52 51 51 51 51 51 51 51 51 51 51 51 51 50 49 48 46 44 42 39 37 34 33 33 34 36 36 34 32 30 29 29 29 29 30 30 31 31 32 33 33 34 35 35 36 37 38 38 39 40 40 42 42 43 43 44 44 44 46 47 47
40 40 39 39 39 40 41 41 42 42 43 44 44 44 45 45 46 47 47 48 48 49 49 49 49 49 49 49 49 49 49 49 49 50 49 49 49 48 47 46 44 41 37 34 32 31 30 31 31 31 30 28 26 26 26 26 26 27 27 28 28 28 28 29 29 30 31 31 32 33 33 34 34 35 36 37 38 39 39 40 41 42 44 44 44
39 38 37 37 38 38 39 40 41 41 41 42 41 41 41 42 43 44 45 45 46 46 46 46 46 46 46 46 46 46 46 47 47 47 47 47 46 46 45 42 39 36 33 30 29 28 28 28 27 26 25 25 24 24 24 24 24 25 25 25 25 25 25 25 26 27 27 28 28 29 30 31 32 33 34 36 36 37 37 38 39 40 40 39 38
37 36 35 35 36 37 37 38 38 38 39 39 39 39 39 40 41 42 42 43 43 43 43 42 42 42 43 43 43 43 43 43 44 44 44 44 43 43 41 38 35 32 29 27 26 26 26 25 24 24 23 23 23 23 23 23 23 23 23 23 23 23 23 23 24 25 26 26 27 28 29 30 31 32 32 33 34 34 34 34 34 35 34 33 32
34 33 33 33 34 35 36 36 36 37 37 37 37 38 38 38 39 39 40 40 40 39 39 39 39 40 40 40 40 40 40 40 40 40 40 40 40 39 36 34 32 29 26 24 24 24 24 23 23 22 22 22 21 21 21 20 21 22 22 22 22 22 22 22 23 24 25 25 26 26 27 27 28 29 29 30 30 30 30 29 29 29 29 28 27
31 31 31 32 33 33 33 34 35 35 36 36 36 36 36 36 36 36 36 36 36 36 36 36 36 37 36 36 36 37 37 37 37 37 37 37 37 35 33 31 28 25 22 22 23 23 22 22 21 21 21 20 19 19 19 19 19 20 20 20 20 20 21 21 22 22 23 23 23 23 23 24 25 25 25 26 26 26 26 25 25 25 25 25 25
28 29 29 29 30 30 31 32 33 33 33 33 33 33 33 33 32 32 32 32 32 32 33 33 33 33 33 33 33 33 33 34 34 35 35 34 33 32 30 27 24 22 21 22 22 21 21 20 20 19 18 18 17 17 17 18 18 19 19 19 18 19 19 20 20 20 20 20 20 20 21 22 23 23 22 22 22 22 23 23 23 23 23 23 23
26 26 27 27 28 29 29 30 30 30 30 30 30 29 29 29 28 28 29 29 29 29 30 29 29 30 30 30 30 31 31 32 33 32 32 31 30 29 26 24 22 21 21 21 20 20 19 18 17 16 16 16 16 16 17 17 17 17 17 17 17 17 18 18 18 18 18 19 19 20 20 21 21 20 20 20 20 21 22 22 22 22 22 22 22
24 24 25 25 25 25 25 25 25 25 25 25 25 25 25 25 26 26 26 26 27 27 27 27 28 28 28 28 29 29 30 30 30 29 29 28 27 26 24 22 21 20 19 18 18 18 18 16 16 15 15 15 16 16 16 16 15 15 16 16 16 17 17 17 17 17 18 18 18 18 19 18 18 18 19 19 19 20 21 21 21 21 21 21 20
21 21 21 21 21 21 21 21 21 22 22 22 22 22 23 24 24 24 25 25 26 26 26 26 27 27 27 28 28 28 28 28 27 27 26 26 25 24 22 20 19 18 17 17 17 17 16 16 16 15 15 15 15 16 16 15 15 15 15 16 16 16 16 16 16 16 16 17 17 16 16 16 16 17 17 18 18 19 19 20 20 20 19 19 19
20 20 19 19 19 20 20 20 21 21 21 21 22 22 22 23 23 24 24 24 25 25 25 26 26 26 26 26 26 26 26 26 26 25 24 24 23 22 20 18 17 16 16 16 17 17 16 16 16 16 15 15 16 16 16 15 15 15 15 15 15 15 15 15 15 15 15 15 15 14 14 14 15 15 16 16 17 17 17 18 18 17 17 17 18
21 20 20 20 21 21 21 22 22 22 22 23 23 23 23 23 23 23 23 23 24 24 25 25 25 25 25 25 25 25 25 25 24 23 22 22 22 21 19 17 16 15 15 16 17 18 18 17 17 17 16 16 16 16 15 15 15 15 15 14 14 14 14 14 13 13 13 13 14 13 12 13 13 14 14 14 15 15 15 15 15 15 15 16 17
21 21 21 22 22 22 22 22 22 22 23 23 24 24 23 22 22 22 22 23 23 24 24 24 24 25 25 25 25 25 25 24 23 22 21 21 20 19 17 16 15 16 16 17 18 19 19 19 18 17 17 16 15 15 14 14 14 14 13 13 13 13 13 12 11 11 12 13 13 12 11 11 11 12 12 12 12 12 12 13 13 13 14 14 15
21 21 22 22 23 23 23 22 22 22 22 23 23 24 24 23 23 23 23 24 24 24 25 25 25 25 25 25 25 25 24 23 22 21 20 19 18 17 16 15 15 16 18 19 20 20 20 20 19 18 17 16 15 14 14 14 14 13 13 12 12 12 11 11 11 11 12 12 11 10 9 9 10 10 10 10 11 11 11 10 11 11 11 12 12
24 23 22 23 23 23 23 23 23 24 24 24 24 25 25 25 26 26 25 25 25 26 26 26 26 26 26 25 24 24 23 23 22 21 20 18 17 16 15 15 16 18 19 20 21 22 22 22 21 19 18 16 15 14 14 14 14 13 12 11 11 11 12 13 13 13 13 12 10 9 9 8 9 9 9 9 9 9 9 9 8 9 9 10 11
26 25 24 24 24 24 25 25 25 26 26 27 27 27 27 27 28 27 27 27 27 27 27 27 27 26 26 25 24 23 22 23 22 21 19 18 17 16 16 16 17 19 21 22 23 24 24 23 22 21 19 17 15 14 14 14 14 13 11 11 11 12 14 15 15 15 14 12 11 10 9 8 8 9 8 8 8 8 7 6 7 7 8 9 11
Wind_Direction
260 260 260 259 259 258 257 257 256 255 254 254 254 254 253 254 256 257 257 256 256 255 255 255 254 253 253 253 252 252 251 250 250 249 248 247 246 246 246 246 245 244 241 237 235 235 237 238 239 240 240 241 241 242 243 244 243 240 237 235 234 234 234 235 236 237 238 240 243 244 245 246 247 247 249 251 253 256 259 260 260 261 261 261 262
261 261 261 260 260 259 259 258 257 256 255 256 256 256 255 254 254 254 255 255 256 256 255 255 255 254 254 253 253 253 252 251 250 249 249 248 247 246 246 245 245 246 245 243 240 237 236 238 239 240 241 242 242 243 244 245 246 247 245 241 238 236 236 236 237 237 237 238 240 241 243 244 246 247 248 248 249 250 253 255 257 258 259 259 259
261 261 261 260 260 259 259 259 259 258 257 257 256 256 257 256 253 253 253 254 255 256 256 256 256 256 255 254 254 253 253 252 250 249 249 248 248 247 246 245 245 245 245 245 244 241 239 238 239 240 241 242 243 243 244 245 246 247 249 248 245 242 241 240 241 241 241 240 239 240 241 242 243 244 246 248 249 249 249 250 251 252 253 254 255
262 261 261 260 259 259 259 259 260 260 260 260 259 257 255 254 253 253 254 254 254 255 256 257 256 256 256 256 255 254 253 252 251 250 249 249 249 249 248 247 246 244 244 245 245 244 242 241 241 240 240 241 242 243 244 245 246 246 248 249 249 248 247 245 244 245 246 246 244 242 242 243 244 244 245 245 247 248 249 250 250 251 251 251 251
264 262 261 260 259 258 257 257 259 260 260 260 261 261 256 253 253 253 253 255 254 254 255 257 256 255 255 255 255 254 253 252 252 251 250 250 249 249 249 249 248 247 245 244 244 245 244 244 243 243 242 241 241 242 243 244 245 246 247 248 249 249 250 249 248 248 249 250 249 248 246 245 244 245 246 246 247 247 248 249 250 251 252 252 252
263 263 262 261 260 259 256 255 255 257 257 255 255 257 256 254 253 252 251 253 254 254 255 256 257 256 255 254 254 254 253 253 253 252 251 251 250 249 249 249 249 249 249 247 246 245 245 245 245 244 244 244 243 243 243 243 244 245 246 247 248 249 249 250 250 250 250 250 251 251 251 250 248 247 246 246 247 248 248 249 249 250 251 252 253
260 261 262 262 262 261 258 254 251 250 251 247 242 244 248 251 254 254 252 251 253 255 254 254 257 258 256 255 254 254 253 253 253 252 251 251 250 250 249 248 248 249 250 250 249 248 247 246 246 246 245 245 245 246 245 245 245 245 246 247 248 249 249 249 249 249 250 251 251 251 251 252 252 251 249 248 247 247 248 249 249 250 250 251 252
259 260 261 261 261 261 260 257 253 250 249 246 244 245 248 251 254 255 254 252 252 253 253 252 254 256 256 255 254 254 254 253 253 252 252 251 250 250 249 249 248 248 249 249 250 251 250 249 248 247 247 246 246 246 247 247 247 247 246 247 247 248 249 250 250 249 249 250 250 251 251 251 252 252 252 251 250 250 249 249 250 250 251 251 252
260 261 261 261 261 261 260 260 258 256 253 251 250 251 251 252 252 253 254 252 251 252 252 250 250 253 255 255 254 255 256 255 254 254 253 252 251 250 249 249 248 248 248 249 250 251 251 251 250 250 249 248 247 247 247 247 248 248 248 248 248 248 248 249 250 250 250 250 250 251 251 252 252 252 252 252 252 252 252 251 251 252 252 252 252
261 261 262 263 263 262 261 261 260 260 259 257 256 255 255 255 254 253 252 250 250 251 252 250 250 251 253 254 254 255 256 257 256 256 255 254 253 252 250 249 249 249 248 248 249 250 250 251 251 251 251 250 250 249 249 248 248 248 248 248 249 249 249 249 250 250 250 251 251 251 252 252 253 253 253 252 252 252 253 253 253 253 253 253 254
261 261 261 262 262 263 262 262 262 262 262 262 261 260 259 258 258 256 253 250 249 250 250 249 249 251 253 254 254 254 256 257 257 257 257 256 255 254 252 251 251 250 249 249 249 249 249 250 250 251 251 251 251 251 251 250 250 249 249 249 249 249 250 250 251 251 251 251 251 251 251 252 253 253 253 253 253 253 253 253 253 253 254 254 254
260 260 260 261 261 262 262 263 263 263 263 263 263 263 262 262 261 260 257 255 252 251 251 250 250 251 252 253 254 254 255 256 257 257 257 257 257 256 255 254 253 252 251 251 250 249 249 249 250 250 251 251 251 251 251 251 251 251 251 251 250 250 250 250 251 252 252 252 253 253 253 252 252 253 253 253 253 253 253 254 254 254 255 255 255
261 261 260 260 260 261 261 262 263 263 263 263 263 264 264 263 263 263 261 259 257 256 255 254 252 252 252 253 253 255 256 256 257 258 258 258 259 259 258 257 255 255 254 253 253 251 250 249 249 249 250 250 251 251 251 251 251 252 252 252 252 252 251 251 251 252 252 252 253 253 254 254 254 254 254 254 253 253 253 254 254 255 255 256 256
263 262 261 261 261 261 261 261 262 262 263 263 263 263 264 264 264 264 264 263 261 260 259 258 256 255 253 252 252 253 255 256 257 257 258 259 259 259 259 258 257 256 255 254 254 253 252 251 250 250 250 249 250 250 251 251 251 251 252 252 252 253 253 252 252 252 252 252 252 253 254 254 254 255 255 255 255 255 255 254 254 255 255 256 256
264 264 263 263 262 262 262 262 262 262 262 262 262 262 263 263 263 264 264 264 263 263 262 261 260 258 257 255 253 252 254 256 256 257 258 259 259 260 260 259 258 257 256 255 255 254 254 253 253 252 251 250 249 250 250 250 251 251 251 251 252 252 253 253 253 252 252 252 253 253 254 255 255 255 255 256 256 256 256 256 256 256 256 256 257
265 265 265 265 264 264 263 263 263 263 262 262 262 262 262 263 263 263 264 264 264 264 264 263 262 262 260 259 257 255 256 256 256 257 258 259 259 260 260 260 259 259 257 256 256 255 255 255 255 254 253 252 251 250 250 250 250 250 250 251 251 251 252 252 252 253 253 253 253 253 254 255 255 255 255 256 256 256 256 257 257 257 257 257 258
264 265 265 265 265 264 264 263 263 263 263 263 263 263 263 263 263 264 264 264 265 265 264 264 264 263 263 262 261 260 259 258 258 259 259 259 259 259 260 260 260 259 259 258 257 257 257 256 256 255 255 254 253 252 252 251 251 250 250 250 251 251 251 251 252 252 253 253 253 253 254 254 255 256 256 256 256 256 257 257 257 257 258 258 258
265 264 264 264 265 265 265 265 264 264 264 264 264 264 264 264 264 264 264 265 265 265 265 265 265 264 264 264 263 262 262 261 261 261 260 260 260 260 259 259 259 259 259 259 259 258 258 257 257 257 256 256 255 254 254 253 252 252 251 250 250 250 251 251 251 251 252 252 253 253 254 254 255 255 256 256 256 257 257 257 257 258 258 258 258
265 265 265 265 264 264 265 265 265 264 264 264 264 264 264 264 264 264 264 264 264 265 265 265 265 265 265 265 264 263 263 263 263 262 261 261 260 260 259 259 259 259 260 260 259 259 258 258 257 257 257 257 257 256 255 255 254 253 253 252 251 250 250 251 251 251 252 252 252 252 253 254 254 255 256 256 257 257 257 257 258 258 259 259 259
264 264 264 264 264 264 264 264 264 264 264 264 264 264 264 264 264 264 264 264 264 264 264 265 265 265 265 265 264 264 264 264 263 263 262 261 260 260 260 260 260 260 260 260 259 259 259 259 258 258 258 258 257 257 256 256 255 255 254 253 252 252 251 251 251 251 251 252 252 252 252 253 254 255 255 256 256 257 257 258 258 258 259 259 260
262 262 262 262 262 262 262 262 262 262 262 263 263 263 263 263 263 263 263 263 263 264 264 264 264 265 265 265 265 264 264 264 263 262 261 261 261 261 261 261 261 260 260 260 260 260 260 259 259 258 258 258 258 258 258 257 256 256 255 254 254 253 252 252 252 251 251 251 252 252 252 253 253 254 254 255 256 256 257 257 258 258 259 259 260
261 261 261 261 261 261 261 261 261 261 261 261 261 261 262 262 262 262 262 263 263 263 263 263 263 264 264 265 265 264 263 263 262 262 262 262 261 261 261 261 261 261 261 261 261 261 261 261 260 260 259 259 258 258 258 258 258 257 256 255 255 254 253 253 253 253 253 252 252 252 253 253 253 254 254 255 255 256 257 257 258 258 258 259 259
261 261 261 260 260 260 260 260 260 260 260 260 260 260 260 261 261 262 262 262 262 262 262 262 262 262 263 263 263 262 262 262 262 263 263 263 263 262 262 262 262 262 262 262 262 262 262 262 262 261 261 260 260 259 259 258 258 258 258 257 256 255 255 254 254 254 254 254 254 253 253 253 254 254 255 255 256 256 257 257 258 258 259 259 259
260 260 259 259 259 258 258 258 259 259 260 260 260 260 260 260 260 260 260 260 261 261 262 262 262 262 261 261 261 262 263 263 263 263 263 264 264 264 264 263 263 263 263 264 264 264 264 264 263 263 262 261 260 260 259 259 258 258 258 258 258 258 257 257 256 256 256 256 256 256 255 255 255 255 255 256 256 257 257 258 258 258 259 259 259
258 258 258 257 257 257 257 257 257 258 258 259 260 260 260 260 260 260 260 260 260 261 262 262 262 262 261 261 262 262 263 263 263 263 264 264 265 265 265 265 265 265 265 265 265 265 265 265 265 264 263 261 260 259 259 259 259 258 258 258 259 259 260 259 259 258 258 257 257 257 257 257 256 256 256 256 256 257 257 257 258 258 259 259 260
258 257 257 257 256 256 256 257 257 257 257 258 258 259 259 259 259 259 260 260 260 260 261 261 261 261 262 262 263 262 262 263 263 264 264 265 265 265 266 266 266 267 267 267 267 267 267 266 266 265 265 263 261 260 260 260 260 260 259 259 260 260 260 260 260 260 259 258 257 257 257 257 257 256 256 256 256 256 257 257 257 258 258 259 259
258 258 257 257 257 257 258 258 258 258 258 258 258 258 258 258 259 260 259 259 260 260 260 260 261 262 262 262 263 263 263 263 263 264 264 264 264 266 267 267 268 269 269 269 269 269 269 268 267 266 266 265 264 263 262 261 261 261 261 262 262 261 261 261 260 259 258 257 256 256 255 255 255 255 255 255 255 256 256 257 257 257 258 259 259
258 257 257 257 258 258 259 260 260 260 259 259 259 259 259 259 259 259 259 259 259 260 260 260 261 261 261 262 262 262 263 263 263 263 264 265 266 267 268 268 269 269 270 271 271 270 269 269 268 267 267 267 266 265 264 263 263 263 263 264 264 263 262 261 259 258 257 255 255 254 254 254 254 254 254 254 255 255 256 256 257 258 258 259 260
257 257 257 258 258 259 259 259 260 260 260 260 260 259 258 258 258 259 260 260 260 260 260 260 260 260 260 260 261 261 262 262 263 264 266 268 269 268 268 268 269 269 270 270 270 270 269 269 269 268 268 269 269 269 268 268 267 266 265 265 264 263 261 260 258 257 255 254 253 253 252 253 253 253 254 254 254 255 256 257 258 259 260 261 262
257 257 258 258 258 258 258 259 259 259 259 259 259 258 257 258 259 260 260 260 259 259 259 258 258 259 259 259 260 260 261 262 263 266 268 270 270 268 268 268 269 269 269 269 269 270 270 270 270 270 271 272 273 273 273 272 271 269 267 265 262 261 259 259 258 257 256 255 254 253 252 252 252 252 253 253 254 256 257 258 259 260 262 263 264
259 259 258 258 258 257 257 257 258 259 258 257 256 257 258 258 258 257 257 257 257 257 257 257 256 257 257 258 259 259 260 262 265 267 268 270 270 269 268 268 267 267 267 267 268 269 269 270 272 273 275 276 276 276 275 273 271 268 265 264 262 261 260 260 259 258 257 256 255 253 252 252 252 252 253 254 255 257 258 259 261 262 263 264 265
257 257 257 258 258 258 258 258 258 257 256 255 256 256 256 256 255 254 254 254 254 255 255 255 255 255 256 257 258 260 262 264 266 267 268 270 270 269 268 267 266 267 267 267 268 269 271 273 275 276 278 279 279 277 275 272 269 268 266 266 265 263 262 260 259 257 256 255 254 254 253 253 254 255 256 256 257 258 259 260 261 262 263 264 264
256 256 256 257 258 258 258 258 257 256 255 255 256 256 255 254 253 253 252 252 252 253 254 254 255 255 256 257 258 261 263 265 267 269 270 270 270 269 268 268 267 267 268 268 270 272 274 275 276 277 277 276 274 273 272 271 272 272 271 270 267 264 261 259 258 256 255 255 255 256 256 257 257 257 258 258 258 259 259 260 261 261 262 262 263
258 258 258 257 256 256 256 255 256 256 256 256 256 256 256 255 254 253 252 252 252 252 252 253 254 254 255 257 259 261 263 265 267 268 269 269 269 269 269 269 269 270 271 272 273 275 276 277 276 275 272 269 269 270 271 272 272 271 269 267 265 264 262 260 259 258 258 258 258 258 259 259 259 258 258 258 259 259 259 259 260 260 261 261 261
257 257 256 256 255 255 255 255 255 256 256 255 254 254 254 253 253 252 252 251 251 251 251 252 253 254 256 257 259 261 262 263 265 266 267 268 269 269 270 271 272 273 275 276 277 278 279 278 274 270 267 267 269 271 272 271 269 267 266 265 264 263 262 260 260 260 259 259 259 258 258 257 257 257 257 257 257 257 258 258 259 259 260 261 262
255 255 254 254 254 254 254 254 254 254 254 252 250 250 250 250 250 250 250 250 251 251 252 252 254 255 256 257 258 259 260 262 263 264 266 267 268 269 271 272 274 276 278 280 282 282 280 276 272 269 269 270 272 272 270 268 267 266 265 264 262 261 260 259 259 258 258 257 256 256 255 255 255 255 256 256 256 257 258 259 260 260 261 261 262
254 253 253 252 252 253 253 253 252 251 251 251 249 248 248 249 249 249 250 250 251 251 252 253 254 255 256 256 257 258 259 261 262 263 265 266 268 269 271 273 276 278 281 283 284 282 278 273 271 271 273 274 274 272 270 268 267 266 264 263 262 261 260 259 258 257 257 256 256 256 256 256 257 257 257 258 259 259 260 260 260 260 260 261 262
251 251 251 251 251 251 251 251 250 249 250 250 249 248 248 247 248 248 248 249 249 250 251 252 252 253 254 255 256 257 258 259 261 262 264 266 268 270 272 275 278 281 283 284 282 278 274 272 272 272 273 273 272 270 268 267 265 263 262 261 260 259 259 258 258 257 257 257 257 257 258 258 258 258 258 258 259 259 259 258 258 259 260 261 261
249 249 249 249 249 249 248 248 248 248 248 248 248 247 246 245 245 245 245 246 247 248 249 250 251 251 252 253 254 255 256 258 259 261 263 265 268 270 273 276 280 282 284 283 279 275 272 271 271 270 268 267 265 263 261 260 258 257 256 256 256 256 255 255 255 255 255 255 255 255 256 256 256 257 257 257 258 258 257 258 258 259 260 261 260
246 246 246 245 245 245 245 245 245 245 245 244 244 244 243 243 243 243 244 244 245 246 247 247 248 249 249 251 252 253 254 256 258 261 263 265 268 271 275 278 281 283 283 278 273 270 269 267 265 262 260 257 256 254 252 251 251 251 252 252 252 253 252 252 252 252 253 253 254 255 255 255 256 256 256 257 257 257 258 258 258 259 260 260 260
242 243 242 242 242 242 242 242 241 241 241 241 241 241 241 241 241 241 242 242 242 243 243 244 245 246 247 248 249 251 253 255 258 260 262 265 269 273 276 279 281 281 276 269 265 263 262 259 256 253 252 250 249 248 247 247 247 248 250 251 252 252 253 253 253 253 254 254 255 256 256 256 257 257 257 258 258 259 259 259 260 260 261 261 261
239 239 239 239 238 238 238 237 237 237 237 237 237 237 237 238 238 237 237 237 237 238 239 240 241 243 244 245 247 249 251 254 256 259 263 267 271 274 277 278 278 273 266 260 258 255 253 250 248 247 247 247 247 247 246 246 247 249 251 252 254 256 257 258 258 258 258 258 257 257 257 257 258 258 259 259 259 259 259 259 259 259 260 260 260
232 232 232 232 231 231 231 231 231 232 232 232 232 232 232 232 231 231 231 231 232 233 234 236 237 239 240 242 245 247 250 253 256 260 264 268 271 274 275 274 270 263 257 253 250 247 245 243 242 242 243 244 245 247 248 250 252 255 257 259 260 261 262 262 262 261 260 260 259 258 257 257 257 257 256 256 255 255 254 255 255 256 257 258 259
226 225 224 224 223 224 224 224 224 225 225 226 226 226 225 224 224 224 225 225 227 228 229 231 233 235 237 240 243 246 250 254 259 262 266 268 270 271 270 266 260 255 250 246 243 241 239 238 237 238 241 244 247 249 252 255 258 261 263 264 264 263 263 263 263 262 261 260 259 257 256 254 252 251 249 249 250 251 252 253 253 254 255 256 258
221 220 219 217 217 216 216 216 217 217 217 217 217 216 216 216 216 217 218 219 221 223 225 227 230 233 236 239 243 248 252 256 260 262 265 266 267 267 264 259 253 247 243 240 238 237 235 235 236 238 240 242 246 251 254 257 259 260 262 262 263 264 264 263 263 262 261 259 256 254 251 248 245 244 244 246 247 249 251 252 253 253 254 255 257
215 214 213 211 210 209 208 208 208 207 206 206 206 206 207 208 209 210 212 215 218 220 223 226 230 233 237 241 245 249 252 256 258 260 261 262 263 261 258 252 246 241 238 236 234 232 231 233 236 238 239 241 245 250 253 255 256 257 258 259 261 262 263 263 262 261 258 255 252 249 245 242 241 241 243 245 248 250 252 252 252 252 253 255 258
210 208 206 204 202 201 201 202 201 201 200 199 199 200 201 203 204 207 211 214 217 221 224 228 231 235 238 242 246 249 252 254 256 257 258 258 257 255 251 245 240 237 234 232 230 229 230 232 236 238 239 240 244 249 252 254 255 256 256 258 260 261 261 261 260 258 254 251 248 244 240 238 239 241 244 248 250 251 251 251 250 251 253 256 259
210 208 206 205 204 202 201 201 200 200 200 199 198 197 198 201 204 208 212 216 220 224 227 231 234 238 241 244 246 249 251 253 255 256 256 254 251 248 245 240 236 233 231 228 227 228 230 233 236 238 239 240 243 248 251 254 255 256 257 258 259 260 260 258 254 250 248 246 242 237 234 236 240 244 248 251 252 250 248 248 248 251 254 258 261
211 211 210 209 208 208 206 205 203 202 202 201 200 200 200 203 208 213 218 221 225 228 232 235 238 241 244 246 247 248 250 252 255 256 255 252 248 244 241 237 233 230 228 226 225 228 231 234 236 238 238 239 242 247 251 254 255 256 256 258 258 257 252 246 241 239 239 238 235 231 230 235 241 247 251 252 250 246 242 243 247 252 257 261 264
211 212 213 214 214 213 213 211 209 207 205 205 205 206 207 208 213 219 224 227 230 233 236 240 243 245 248 249 249 250 250 252 254 256 255 251 246 243 239 234 230 227 226 224 224 227 231 235 237 237 237 238 240 245 250 254 255 255 256 257 256 250 241 234 230 229 230 231 230 229 229 234 240 246 249 248 246 243 241 244 251 259 264 266 267
211 212 214 217 218 219 219 219 217 214 212 211 211 213 214 216 219 224 228 232 234 237 240 244 248 251 253 254 253 252 251 252 253 254 253 250 246 242 239 234 229 226 224 223 223 226 231 235 237 237 237 237 239 243 248 252 254 255 254 254 251 242 233 229 225 223 223 224 224 224 227 233 239 241 240 238 237 237 240 248 256 260 262 263 262